Location: Banff
(51.1667°N, 115.5667°W)
Time: 07:30:31
(UTC+00:00)

S-56A Canister/Altair - Pass Details

Date: 03 December 2020
Orbit: 633 x 2499 km, 38.9° (Epoch: 21 January)

Event Time Altitude Azimuth Distance (km) Brightness Sun altitude
Rises 07:41:25 0° 269° (W) 4,478 - -61.0°
Reaches altitude 10° 07:47:31 10° 238° (WSW) 2,973 - -60.9°
Maximum altitude 07:49:16 11° 223° (SW) 2,751 - -60.8°
Drops below altitude 10° 07:50:54 10° 208° (SSW) 2,691 - -60.8°
Sets 07:55:25 0° 172° (S) 3,286 - -60.7°
